This is the latest recevied weather packets stored in our database for station/object K5NWZ. If no packets are shown the sender has not sent any weather packets the latest 10 day(s).
| Time | Temp. | Humidity | Pressure | Rain* | Wind** | Luminosity | Snow |
|---|---|---|---|---|---|---|---|
| 1777995212 | 1.67° C | 96% | 1024.7 hPa | 0 mm | - | 73 W/m² | - |
| 1777994909 | 1.11° C | 96% | 1024.6 hPa | 0 mm | - | 74 W/m² | - |
| 1777994606 | 1.11° C | 96% | 1024.5 hPa | 0 mm | - | 66 W/m² | - |
| 1777994306 | 1.11° C | 96% | 1024.7 hPa | 0 mm | - | 65 W/m² | - |
| 1777994002 | 1.11° C | 96% | 1024.7 hPa | 0 mm | - | 72 W/m² | - |
| 1777993700 | 1.11° C | 96% | 1024.4 hPa | 0 mm | - | 61 W/m² | - |
| 1777993396 | 1.11° C | 96% | 1024.6 hPa | 0 mm | - | 57 W/m² | - |
| 1777993091 | 0.56° C | 96% | 1024.6 hPa | 0 mm | - | 51 W/m² | - |
| 1777992790 | 0.56° C | 96% | 1024.7 hPa | 0 mm | - | 46 W/m² | - |
| 1777992487 | 0.56° C | 96% | 1024.5 hPa | 0 mm | - | 45 W/m² | - |
| 1777992185 | 0.56° C | 96% | 1024.2 hPa | 0 mm | - | 49 W/m² | - |
| 1777991881 | 0.56° C | 96% | 1024.6 hPa | 0 mm | - | 54 W/m² | - |
| 1777991579 | 0.56° C | 96% | 1024.6 hPa | 0 mm | - | 42 W/m² | - |
| 1777991276 | 0.56° C | 96% | 1024.7 hPa | 0 mm | - | 38 W/m² | - |
| 1777990973 | 0.56° C | 96% | 1024.6 hPa | 0 mm | - | 44 W/m² | - |
| 1777990671 | 0.56° C | 96% | 1024.4 hPa | 0 mm | - | 45 W/m² | - |
| 1777990368 | 0.56° C | 96% | 1024.6 hPa | 0 mm | - | 39 W/m² | - |
| 1777990064 | 0.56° C | 96% | 1024.4 hPa | 0 mm | - | 31 W/m² | - |
| 1777989761 | 0.56° C | 96% | 1024.5 hPa | 0 mm | - | 28 W/m² | - |
| 1777989457 | 0.56° C | 96% | 1024.6 hPa | 0 mm | - | 28 W/m² | - |
| 1777989154 | 0.56° C | 96% | 1024.7 hPa | 0 mm | - | 29 W/m² | - |
| 1777988850 | 0.56° C | 96% | 1024.6 hPa | 0 mm | - | 30 W/m² | - |
| 1777988547 | 0.56° C | 96% | 1024.5 hPa | 0 mm | - | 28 W/m² | - |
| 1777988244 | 0° C | 96% | 1024.7 hPa | 0 mm | - | 28 W/m² | - |
| 1777987941 | 0° C | 96% | 1024.4 hPa | 0 mm | - | 23 W/m² | - |
* Rain latest hour (hover to see other rain measurements)
** Current wind speed in m/s (hover to see current wind gust speed)